QPF
0.00 0.00 0.00 0.00 0.00 0.00 0.00 0.00 0.00 0.00 0.00 0.00 0.00 0.00 0.00 0.00 0.00 0.00 0.00 0.00 0.00 0.00 0.00 0.00 0.00 0.00 0.00 0.00 0.00 0.00 0.00 0.00 0.00 0.00 0.00 0.00 0.00 0.00 0.00 0.00 0.00 0.00 0.00 0.00
0.00 0.00 0.00 0.00 0.00 0.00 0.00 0.00 0.00 0.00 0.00 0.00 0.00 0.00 0.00 0.00 0.00 0.00 0.00 0.00 0.00 0.00 0.00 0.00 0.00 0.00 0.00 0.00 0.00 0.00 0.00 0.00 0.00 0.00 0.00 0.00 0.00 0.00 0.00 0.00 0.00 0.00 0.00 0.00
0.00 0.00 0.00 0.00 0.00 0.00 0.00 0.00 0.00 0.00 0.00 0.00 0.00 0.00 0.00 0.00 0.00 0.00 0.00 0.00 0.00 0.00 0.00 0.00 0.00 0.00 0.00 0.00 0.00 0.00 0.00 0.00 0.00 0.00 0.00 0.00 0.00 0.00 0.00 0.00 0.00 0.00 0.00 0.00
0.00 0.00 0.00 0.00 0.00 0.00 0.00 0.00 0.00 0.00 0.00 0.00 0.00 0.00 0.00 0.00 0.00 0.00 0.00 0.00 0.00 0.00 0.00 0.00 0.00 0.00 0.00 0.00 0.00 0.00 0.00 0.00 0.00 0.00 0.00 0.00 0.00 0.00 0.00 0.00 0.00 0.00 0.00 0.00
0.00 0.00 0.00 0.00 0.00 0.00 0.00 0.00 0.00 0.00 0.00 0.00 0.00 0.00 0.00 0.00 0.00 0.00 0.00 0.00 0.00 0.00 0.00 0.00 0.00 0.00 0.00 0.00 0.00 0.00 0.00 0.00 0.00 0.00 0.00 0.00 0.00 0.00 0.00 0.00 0.00 0.00 0.00 0.00
0.01 0.01 0.00 0.00 0.00 0.00 0.00 0.00 0.00 0.00 0.00 0.00 0.00 0.00 0.00 0.00 0.00 0.00 0.00 0.00 0.00 0.00 0.00 0.00 0.00 0.00 0.00 0.00 0.00 0.00 0.00 0.00 0.00 0.00 0.00 0.00 0.00 0.00 0.00 0.00 0.00 0.00 0.00 0.00
0.03 0.02 0.01 0.01 0.01 0.01 0.00 0.00 0.00 0.00 0.00 0.00 0.00 0.00 0.00 0.00 0.00 0.00 0.00 0.00 0.00 0.00 0.00 0.00 0.00 0.00 0.00 0.00 0.00 0.00 0.00 0.00 0.00 0.00 0.00 0.00 0.00 0.00 0.00 0.00 0.00 0.00 0.00 0.00
0.03 0.03 0.01 0.00 0.00 0.00 0.00 0.00 0.00 0.00 0.00 0.00 0.00 0.00 0.00 0.00 0.00 0.00 0.00 0.00 0.00 0.00 0.00 0.00 0.00 0.00 0.00 0.00 0.00 0.00 0.00 0.00 0.00 0.00 0.00 0.00 0.00 0.00 0.00 0.00 0.00 0.00 0.00 0.00
0.01 0.01 0.00 0.00 0.00 0.00 0.00 0.00 0.00 0.00 0.00 0.00 0.00 0.00 0.00 0.00 0.00 0.00 0.00 0.00 0.00 0.00 0.00 0.00 0.00 0.00 0.00 0.00 0.00 0.00 0.00 0.00 0.00 0.00 0.00 0.00 0.00 0.00 0.00 0.00 0.00 0.00 0.00 0.00
0.00 0.00 0.00 0.00 0.00 0.00 0.00 0.00 0.00 0.00 0.00 0.00 0.00 0.00 0.00 0.00 0.00 0.00 0.00 0.00 0.00 0.00 0.00 0.00 0.00 0.00 0.00 0.00 0.00 0.00 0.00 0.00 0.00 0.00 0.00 0.00 0.00 0.00 0.00 0.00 0.00 0.00 0.00 0.00
0.00 0.00 0.00 0.00 0.00 0.00 0.00 0.00 0.00 0.00 0.00 0.00 0.00 0.00 0.00 0.00 0.00 0.00 0.00 0.00 0.00 0.00 0.00 0.00 0.00 0.00 0.00 0.00 0.00 0.00 0.00 0.00 0.00 0.00 0.00 0.00 0.00 0.00 0.00 0.00 0.00 0.00 0.00 0.00
0.00 0.00 0.00 0.00 0.00 0.00 0.00 0.00 0.00 0.00 0.00 0.00 0.00 0.00 0.00 0.00 0.00 0.00 0.00 0.00 0.00 0.00 0.00 0.00 0.00 0.00 0.00 0.00 0.00 0.00 0.00 0.00 0.00 0.00 0.00 0.00 0.00 0.00 0.00 0.00 0.00 0.00 0.00 0.00
0.00 0.00 0.00 0.00 0.00 0.00 0.00 0.00 0.00 0.00 0.00 0.01 0.00 0.00 0.00 0.00 0.00 0.00 0.00 0.00 0.00 0.00 0.00 0.00 0.00 0.00 0.00 0.00 0.00 0.00 0.00 0.00 0.00 0.00 0.00 0.00 0.00 0.00 0.01 0.00 0.00 0.00 0.00 0.00
0.00 0.00 0.00 0.00 0.00 0.00 0.00 0.00 0.00 0.00 0.00 0.01 0.00 0.01 0.01 0.01 0.01 0.00 0.00 0.00 0.00 0.00 0.00 0.00 0.00 0.00 0.00 0.00 0.00 0.00 0.00 0.00 0.00 0.00 0.00 0.00 0.00 0.00 0.01 0.00 0.01 0.02 0.02 0.01
0.00 0.00 0.00 0.00 0.00 0.00 0.00 0.00 0.00 0.01 0.01 0.01 0.01 0.01 0.01 0.00 0.00 0.00 0.00 0.00 0.00 0.01 0.00 0.00 0.00 0.00 0.00 0.00 0.00 0.00 0.00 0.00 0.00 0.00 0.00 0.00 0.00 0.00 0.01 0.01 0.02 0.02 0.02 0.02
0.00 0.00 0.00 0.00 0.00 0.01 0.01 0.01 0.01 0.01 0.01 0.01 0.01 0.01 0.01 0.01 0.01 0.00 0.00 0.00 0.00 0.00 0.00 0.00 0.00 0.00 0.00 0.00 0.00 0.00 0.00 0.00 0.00 0.00 0.00 0.00 0.00 0.01 0.01 0.02 0.03 0.03 0.03 0.02
0.00 0.00 0.01 0.01 0.01 0.01 0.01 0.01 0.01 0.01 0.01 0.01 0.01 0.01 0.01 0.01 0.00 0.00 0.01 0.01 0.00 0.00 0.00 0.00 0.00 0.00 0.00 0.00 0.00 0.00 0.00 0.00 0.00 0.00 0.00 0.00 0.01 0.01 0.01 0.02 0.03 0.03 0.03 0.02
0.00 0.01 0.01 0.01 0.01 0.01 0.01 0.01 0.01 0.01 0.01 0.01 0.01 0.01 0.01 0.01 0.01 0.01 0.01 0.00 0.00 0.00 0.00 0.00 0.00 0.00 0.00 0.00 0.00 0.00 0.00 0.00 0.00 0.00 0.00 0.01 0.01 0.01 0.02 0.02 0.02 0.02 0.02 0.02
0.00 0.00 0.01 0.00 0.00 0.01 0.01 0.01 0.01 0.01 0.01 0.01 0.01 0.01 0.01 0.01 0.00 0.01 0.01 0.01 0.01 0.01 0.00 0.00 0.00 0.00 0.00 0.00 0.00 0.00 0.00 0.00 0.00 0.00 0.01 0.01 0.01 0.02 0.02 0.02 0.02 0.02 0.02 0.03
0.00 0.00 0.00 0.00 0.00 0.00 0.00 0.00 0.00 0.00 0.01 0.01 0.01 0.01 0.00 0.00 0.00 0.00 0.00 0.00 0.00 0.00 0.00 0.00 0.00 0.00 0.00 0.00 0.00 0.00 0.00 0.00 0.00 0.00 0.01 0.01 0.02 0.02 0.01 0.02 0.02 0.02 0.02 0.02
0.00 0.00 0.00 0.00 0.00 0.00 0.00 0.00 0.00 0.00 0.01 0.01 0.01 0.00 0.00 0.00 0.00 0.00 0.00 0.00 0.00 0.00 0.00 0.00 0.00 0.00 0.00 0.00 0.00 0.00 0.00 0.00 0.00 0.00 0.01 0.01 0.02 0.02 0.02 0.03 0.03 0.02 0.02 0.02
0.00 0.00 0.00 0.00 0.00 0.00 0.00 0.00 0.00 0.00 0.00 0.00 0.00 0.00 0.00 0.00 0.00 0.00 0.00 0.00 0.00 0.00 0.00 0.00 0.00 0.00 0.00 0.00 0.00 0.00 0.00 0.00 0.00 0.01 0.01 0.02 0.02 0.03 0.03 0.02 0.03 0.02 0.01 0.02
0.00 0.00 0.00 0.00 0.00 0.00 0.00 0.00 0.00 0.00 0.00 0.00 0.00 0.00 0.00 0.00 0.00 0.00 0.00 0.00 0.00 0.00 0.00 0.00 0.00 0.00 0.00 0.00 0.00 0.00 0.00 0.00 0.01 0.01 0.01 0.01 0.01 0.02 0.02 0.02 0.02 0.02 0.01 0.02
0.00 0.00 0.00 0.00 0.00 0.00 0.00 0.00 0.00 0.00 0.00 0.00 0.00 0.00 0.00 0.00 0.00 0.00 0.00 0.00 0.00 0.00 0.00 0.00 0.00 0.00 0.00 0.00 0.00 0.01 0.01 0.01 0.01 0.01 0.01 0.01 0.01 0.01 0.02 0.02 0.02 0.02 0.01 0.01
0.00 0.00 0.00 0.00 0.00 0.00 0.00 0.00 0.00 0.00 0.00 0.00 0.00 0.00 0.00 0.00 0.00 0.00 0.00 0.00 0.00 0.00 0.00 0.00 0.00 0.00 0.01 0.01 0.01 0.01 0.01 0.01 0.01 0.01 0.01 0.01 0.01 0.01 0.02 0.03 0.03 0.02 0.01 0.01
0.00 0.00 0.00 0.00 0.00 0.00 0.00 0.00 0.00 0.00 0.00 0.00 0.00 0.00 0.00 0.00 0.00 0.00 0.00 0.00 0.00 0.01 0.01 0.01 0.01 0.02 0.02 0.03 0.02 0.02 0.02 0.01 0.01 0.01 0.01 0.01 0.01 0.01 0.02 0.03 0.02 0.01 0.01 0.00
0.00 0.00 0.00 0.00 0.00 0.00 0.00 0.00 0.00 0.00 0.00 0.00 0.00 0.00 0.00 0.00 0.00 0.00 0.00 0.01 0.01 0.02 0.02 0.02 0.02 0.02 0.02 0.03 0.04 0.04 0.03 0.02 0.02 0.01 0.01 0.02 0.01 0.01 0.01 0.02 0.01 0.01 0.01 0.01
MSLP
1011.34 1011.40 1011.43 1011.44 1011.43 1011.38 1011.29 1011.16 1010.99 1010.77 1010.54 1010.32 1010.15 1010.07 1010.10 1010.25 1010.54 1010.93 1011.41 1011.94 1012.47 1012.96 1013.38 1013.73 1013.99 1014.17 1014.30 1014.37 1014.42 1014.44 1014.45 1014.44 1014.41 1014.35 1014.26 1014.13 1013.98 1013.79 1013.57 1013.34 1013.10 1012.85 1012.60 1012.34
1011.29 1011.32 1011.29 1011.21 1011.08 1010.92 1010.73 1010.52 1010.29 1010.07 1009.86 1009.69 1009.60 1009.60 1009.70 1009.91 1010.23 1010.64 1011.11 1011.61 1012.10 1012.55 1012.95 1013.29 1013.55 1013.75 1013.89 1014.00 1014.07 1014.12 1014.14 1014.14 1014.11 1014.05 1013.95 1013.81 1013.64 1013.43 1013.20 1012.94 1012.66 1012.38 1012.09 1011.80
1011.28 1011.27 1011.17 1011.01 1010.79 1010.54 1010.26 1009.99 1009.73 1009.50 1009.32 1009.21 1009.19 1009.26 1009.42 1009.68 1010.02 1010.42 1010.86 1011.31 1011.75 1012.16 1012.52 1012.83 1013.08 1013.29 1013.46 1013.59 1013.69 1013.76 1013.80 1013.80 1013.78 1013.71 1013.59 1013.44 1013.24 1013.01 1012.76 1012.47 1012.17 1011.85 1011.53 1011.20
1011.26 1011.21 1011.06 1010.83 1010.54 1010.21 1009.87 1009.55 1009.27 1009.05 1008.90 1008.84 1008.88 1009.01 1009.23 1009.52 1009.86 1010.25 1010.65 1011.05 1011.44 1011.79 1012.11 1012.39 1012.64 1012.85 1013.03 1013.18 1013.30 1013.38 1013.43 1013.44 1013.40 1013.32 1013.18 1013.01 1012.79 1012.53 1012.25 1011.94 1011.62 1011.27 1010.92 1010.57
1011.20 1011.10 1010.91 1010.62 1010.26 1009.88 1009.49 1009.14 1008.85 1008.64 1008.52 1008.51 1008.60 1008.78 1009.04 1009.36 1009.71 1010.09 1010.46 1010.82 1011.16 1011.47 1011.75 1012.01 1012.24 1012.45 1012.64 1012.80 1012.93 1013.02 1013.07 1013.06 1013.01 1012.90 1012.73 1012.52 1012.28 1012.00 1011.69 1011.37 1011.02 1010.67 1010.31 1009.94
1011.04 1010.91 1010.66 1010.32 1009.92 1009.49 1009.07 1008.70 1008.40 1008.19 1008.11 1008.13 1008.27 1008.49 1008.79 1009.13 1009.49 1009.86 1010.22 1010.55 1010.87 1011.15 1011.42 1011.67 1011.90 1012.12 1012.32 1012.48 1012.61 1012.70 1012.73 1012.70 1012.61 1012.46 1012.26 1012.01 1011.74 1011.43 1011.11 1010.78 1010.43 1010.08 1009.72 1009.36
1010.79 1010.61 1010.32 1009.95 1009.50 1009.04 1008.58 1008.19 1007.88 1007.68 1007.60 1007.65 1007.81 1008.07 1008.39 1008.76 1009.14 1009.52 1009.88 1010.22 1010.53 1010.82 1011.10 1011.35 1011.60 1011.83 1012.04 1012.21 1012.34 1012.40 1012.41 1012.34 1012.21 1012.02 1011.78 1011.49 1011.18 1010.86 1010.53 1010.20 1009.87 1009.53 1009.20 1008.86
1010.49 1010.27 1009.95 1009.53 1009.05 1008.55 1008.07 1007.64 1007.31 1007.10 1007.02 1007.07 1007.25 1007.52 1007.85 1008.24 1008.64 1009.03 1009.42 1009.78 1010.12 1010.44 1010.74 1011.03 1011.31 1011.56 1011.78 1011.96 1012.08 1012.13 1012.10 1012.00 1011.82 1011.58 1011.29 1010.98 1010.64 1010.31 1009.98 1009.67 1009.36 1009.06 1008.77 1008.47
1010.24 1009.99 1009.63 1009.17 1008.66 1008.12 1007.60 1007.15 1006.78 1006.54 1006.44 1006.47 1006.62 1006.88 1007.22 1007.61 1008.02 1008.44 1008.85 1009.25 1009.63 1009.99 1010.34 1010.67 1010.99 1011.27 1011.52 1011.70 1011.82 1011.85 1011.79 1011.65 1011.43 1011.15 1010.82 1010.47 1010.12 1009.79 1009.47 1009.18 1008.92 1008.67 1008.42 1008.17
1010.14 1009.86 1009.48 1008.99 1008.45 1007.87 1007.31 1006.81 1006.40 1006.11 1005.96 1005.94 1006.06 1006.28 1006.59 1006.96 1007.37 1007.80 1008.23 1008.66 1009.08 1009.49 1009.89 1010.27 1010.63 1010.95 1011.22 1011.41 1011.52 1011.54 1011.45 1011.28 1011.02 1010.70 1010.34 1009.97 1009.62 1009.29 1008.99 1008.74 1008.52 1008.32 1008.14 1007.94
1010.30 1010.01 1009.60 1009.09 1008.51 1007.90 1007.30 1006.75 1006.28 1005.93 1005.71 1005.62 1005.67 1005.83 1006.09 1006.42 1006.80 1007.21 1007.65 1008.09 1008.53 1008.98 1009.42 1009.84 1010.23 1010.58 1010.86 1011.07 1011.17 1011.18 1011.07 1010.87 1010.58 1010.24 1009.86 1009.48 1009.12 1008.81 1008.54 1008.32 1008.14 1008.00 1007.86 1007.72
1010.76 1010.47 1010.05 1009.52 1008.92 1008.27 1007.63 1007.03 1006.50 1006.08 1005.78 1005.61 1005.57 1005.64 1005.82 1006.08 1006.40 1006.77 1007.17 1007.60 1008.04 1008.49 1008.94 1009.38 1009.79 1010.15 1010.45 1010.66 1010.76 1010.75 1010.64 1010.42 1010.12 1009.76 1009.37 1008.99 1008.64 1008.33 1008.08 1007.89 1007.75 1007.64 1007.55 1007.45
1011.48 1011.18 1010.76 1010.22 1009.60 1008.94 1008.26 1007.62 1007.04 1006.55 1006.17 1005.91 1005.78 1005.75 1005.83 1005.99 1006.23 1006.52 1006.85 1007.23 1007.64 1008.06 1008.49 1008.92 1009.33 1009.68 1009.98 1010.18 1010.28 1010.27 1010.15 1009.93 1009.62 1009.26 1008.88 1008.50 1008.15 1007.85 1007.61 1007.44 1007.31 1007.23 1007.16 1007.08
1012.32 1012.04 1011.62 1011.08 1010.46 1009.79 1009.10 1008.43 1007.82 1007.28 1006.83 1006.50 1006.27 1006.14 1006.11 1006.16 1006.28 1006.47 1006.71 1007.00 1007.33 1007.69 1008.07 1008.46 1008.83 1009.17 1009.45 1009.64 1009.74 1009.73 1009.61 1009.40 1009.10 1008.75 1008.38 1008.00 1007.66 1007.36 1007.12 1006.95 1006.82 1006.73 1006.66 1006.58
1013.14 1012.87 1012.45 1011.93 1011.32 1010.66 1009.98 1009.32 1008.69 1008.13 1007.64 1007.25 1006.94 1006.72 1006.58 1006.51 1006.51 1006.57 1006.69 1006.87 1007.10 1007.37 1007.67 1007.99 1008.31 1008.61 1008.86 1009.04 1009.14 1009.13 1009.03 1008.83 1008.56 1008.23 1007.87 1007.50 1007.16 1006.86 1006.62 1006.42 1006.28 1006.17 1006.07 1005.97
1013.79 1013.52 1013.12 1012.61 1012.03 1011.40 1010.76 1010.12 1009.52 1008.96 1008.46 1008.03 1007.67 1007.37 1007.13 1006.95 1006.83 1006.76 1006.75 1006.80 1006.90 1007.06 1007.26 1007.50 1007.75 1008.00 1008.22 1008.38 1008.47 1008.48 1008.39 1008.23 1007.98 1007.68 1007.35 1007.00 1006.67 1006.36 1006.10 1005.88 1005.70 1005.55 1005.41 1005.28
1014.16 1013.88 1013.50 1013.02 1012.48 1011.90 1011.31 1010.73 1010.17 1009.65 1009.18 1008.74 1008.35 1007.99 1007.67 1007.39 1007.15 1006.96 1006.81 1006.72 1006.70 1006.73 1006.82 1006.97 1007.14 1007.33 1007.51 1007.65 1007.74 1007.77 1007.71 1007.58 1007.37 1007.11 1006.81 1006.49 1006.17 1005.86 1005.59 1005.34 1005.12 1004.93 1004.75 1004.58
1014.23 1013.94 1013.57 1013.12 1012.63 1012.11 1011.59 1011.09 1010.60 1010.14 1009.71 1009.29 1008.89 1008.50 1008.12 1007.76 1007.41 1007.10 1006.83 1006.61 1006.45 1006.36 1006.35 1006.39 1006.49 1006.61 1006.75 1006.88 1006.97 1007.01 1006.98 1006.89 1006.73 1006.52 1006.26 1005.97 1005.67 1005.37 1005.09 1004.82 1004.58 1004.35 1004.13 1003.93
1014.04 1013.75 1013.38 1012.96 1012.52 1012.07 1011.64 1011.21 1010.81 1010.42 1010.04 1009.65 1009.26 1008.85 1008.43 1008.00 1007.57 1007.15 1006.77 1006.43 1006.16 1005.96 1005.83 1005.79 1005.81 1005.87 1005.97 1006.08 1006.17 1006.22 1006.23 1006.17 1006.06 1005.89 1005.68 1005.43 1005.17 1004.89 1004.62 1004.36 1004.10 1003.86 1003.62 1003.40
1013.72 1013.41 1013.05 1012.66 1012.26 1011.88 1011.52 1011.18 1010.85 1010.53 1010.20 1009.85 1009.47 1009.05 1008.60 1008.12 1007.62 1007.11 1006.64 1006.20 1005.83 1005.53 1005.32 1005.19 1005.14 1005.16 1005.22 1005.30 1005.38 1005.45 1005.47 1005.45 1005.38 1005.27 1005.10 1004.90 1004.68 1004.45 1004.20 1003.96 1003.72 1003.48 1003.25 1003.03
1013.37 1013.05 1012.69 1012.32 1011.97 1011.64 1011.34 1011.06 1010.80 1010.53 1010.25 1009.92 1009.55 1009.12 1008.64 1008.12 1007.56 1007.00 1006.45 1005.93 1005.48 1005.11 1004.83 1004.64 1004.54 1004.50 1004.53 1004.59 1004.66 1004.72 1004.76 1004.77 1004.73 1004.66 1004.54 1004.40 1004.23 1004.04 1003.85 1003.65 1003.45 1003.24 1003.04 1002.85
1013.08 1012.74 1012.38 1012.03 1011.71 1011.42 1011.16 1010.93 1010.71 1010.47 1010.21 1009.89 1009.52 1009.08 1008.57 1008.01 1007.42 1006.81 1006.21 1005.65 1005.15 1004.73 1004.41 1004.17 1004.03 1003.96 1003.95 1003.99 1004.04 1004.10 1004.14 1004.17 1004.15 1004.11 1004.04 1003.95 1003.83 1003.71 1003.57 1003.43 1003.29 1003.14 1002.99 1002.83
1012.87 1012.51 1012.15 1011.81 1011.51 1011.24 1011.01 1010.79 1010.58 1010.35 1010.09 1009.77 1009.38 1008.92 1008.39 1007.81 1007.19 1006.55 1005.93 1005.35 1004.84 1004.40 1004.05 1003.80 1003.63 1003.54 1003.52 1003.53 1003.57 1003.62 1003.66 1003.68 1003.68 1003.67 1003.63 1003.58 1003.52 1003.46 1003.39 1003.31 1003.24 1003.15 1003.06 1002.96
1012.69 1012.33 1011.97 1011.64 1011.35 1011.09 1010.85 1010.63 1010.41 1010.16 1009.87 1009.53 1009.11 1008.63 1008.08 1007.48 1006.85 1006.22 1005.61 1005.03 1004.53 1004.11 1003.77 1003.52 1003.36 1003.27 1003.23 1003.23 1003.26 1003.29 1003.32 1003.34 1003.35 1003.35 1003.35 1003.33 1003.32 1003.31 1003.31 1003.30 1003.29 1003.28 1003.25 1003.21
1012.48 1012.13 1011.78 1011.46 1011.16 1010.90 1010.65 1010.41 1010.15 1009.87 1009.54 1009.16 1008.71 1008.20 1007.64 1007.04 1006.42 1005.80 1005.22 1004.69 1004.23 1003.84 1003.54 1003.33 1003.19 1003.11 1003.08 1003.08 1003.11 1003.13 1003.15 1003.17 1003.19 1003.20 1003.21 1003.23 1003.26 1003.30 1003.34 1003.40 1003.45 1003.49 1003.52 1003.52
1012.19 1011.85 1011.52 1011.20 1010.91 1010.63 1010.36 1010.08 1009.78 1009.45 1009.08 1008.65 1008.17 1007.64 1007.07 1006.48 1005.89 1005.32 1004.79 1004.32 1003.92 1003.60 1003.37 1003.20 1003.11 1003.06 1003.06 1003.07 1003.10 1003.13 1003.15 1003.17 1003.18 1003.20 1003.23 1003.27 1003.33 1003.41 1003.50 1003.60 1003.70 1003.79 1003.86 1003.90
1011.79 1011.47 1011.16 1010.86 1010.56 1010.27 1009.97 1009.65 1009.31 1008.93 1008.51 1008.05 1007.54 1007.00 1006.44 1005.87 1005.33 1004.81 1004.35 1003.96 1003.65 1003.41 1003.25 1003.15 1003.11 1003.11 1003.14 1003.18 1003.22 1003.26 1003.29 1003.31 1003.34 1003.37 1003.41 1003.48 1003.56 1003.66 1003.78 1003.91 1004.04 1004.16 1004.25 1004.31
Thickness
5762 5767 5764 5760 5759 5758 5751 5753 5748 5753 5756 5762 5764 5761 5759 5753 5747 5740 5733 5728 5722 5716 5711 5705 5699 5693 5688 5682 5677 5671 5665 5660 5655 5650 5645 5640 5635 5631 5626 5621 5617 5614 5609 5606
5753 5762 5762 5756 5760 5761 5758 5757 5756 5756 5757 5770 5767 5763 5756 5750 5744 5738 5733 5728 5722 5716 5709 5703 5697 5691 5685 5679 5673 5668 5662 5657 5653 5647 5642 5637 5632 5627 5622 5617 5612 5607 5603 5600
5744 5758 5752 5746 5761 5762 5761 5763 5760 5754 5761 5765 5759 5754 5751 5748 5743 5739 5734 5728 5722 5716 5709 5702 5696 5689 5682 5677 5671 5664 5659 5654 5649 5644 5638 5633 5628 5623 5617 5612 5607 5602 5598 5595
5746 5743 5724 5758 5776 5771 5764 5765 5768 5765 5765 5762 5759 5757 5755 5752 5745 5739 5734 5728 5722 5715 5708 5701 5695 5688 5680 5675 5669 5662 5657 5652 5647 5641 5635 5630 5624 5618 5613 5608 5602 5597 5593 5589
5742 5737 5742 5761 5768 5766 5758 5758 5770 5765 5763 5761 5757 5752 5751 5750 5746 5740 5734 5728 5722 5715 5708 5699 5692 5685 5678 5672 5667 5661 5655 5649 5644 5637 5631 5625 5619 5614 5608 5602 5597 5592 5589 5585
5738 5729 5729 5753 5768 5772 5761 5749 5770 5767 5760 5756 5750 5742 5748 5749 5744 5738 5732 5726 5719 5712 5705 5696 5689 5682 5674 5669 5664 5658 5652 5646 5640 5633 5627 5621 5615 5609 5603 5597 5592 5588 5585 5581
5734 5731 5746 5764 5767 5763 5739 5745 5766 5766 5762 5756 5750 5750 5750 5748 5741 5735 5728 5722 5715 5707 5700 5693 5686 5678 5670 5666 5660 5655 5649 5642 5635 5629 5623 5617 5611 5604 5599 5594 5589 5584 5580 5577
5733 5726 5734 5759 5760 5751 5751 5760 5763 5762 5762 5756 5754 5752 5747 5742 5736 5730 5724 5717 5711 5702 5696 5689 5682 5674 5667 5662 5657 5651 5644 5638 5632 5626 5620 5615 5607 5600 5595 5589 5586 5582 5578 5574
5739 5740 5749 5758 5755 5757 5757 5755 5757 5759 5759 5756 5751 5747 5743 5737 5732 5727 5720 5714 5708 5700 5692 5686 5679 5671 5664 5659 5653 5646 5639 5633 5628 5622 5616 5610 5603 5598 5592 5588 5584 5581 5577 5572
5734 5745 5749 5751 5753 5753 5753 5752 5755 5757 5756 5753 5747 5744 5739 5734 5728 5722 5716 5710 5703 5696 5688 5682 5676 5669 5662 5655 5649 5641 5635 5630 5624 5618 5613 5607 5599 5595 5590 5585 5581 5577 5573 5569
5729 5736 5741 5746 5744 5745 5747 5750 5751 5752 5751 5748 5743 5739 5734 5728 5723 5718 5712 5705 5699 5691 5684 5678 5672 5665 5659 5652 5644 5637 5631 5626 5620 5615 5610 5602 5597 5591 5585 5580 5575 5567 5566 5563
5721 5724 5724 5728 5734 5737 5738 5740 5741 5741 5740 5740 5737 5732 5728 5723 5718 5712 5706 5700 5692 5686 5680 5674 5668 5661 5655 5648 5640 5632 5626 5621 5617 5612 5606 5600 5595 5591 5585 5576 5570 5562 5555 5550
5713 5719 5720 5722 5727 5730 5731 5733 5734 5733 5731 5728 5726 5724 5719 5714 5710 5705 5699 5693 5687 5681 5675 5670 5663 5657 5651 5644 5635 5628 5621 5615 5611 5607 5601 5596 5591 5586 5582 5578 5570 5563 5556 5550
5708 5710 5709 5712 5715 5718 5721 5724 5725 5723 5721 5719 5716 5713 5709 5705 5700 5695 5690 5686 5681 5676 5669 5664 5657 5651 5646 5638 5630 5623 5617 5611 5604 5600 5596 5592 5587 5583 5578 5575 5572 5569 5562 5553
5697 5700 5699 5702 5704 5707 5709 5711 5709 5708 5706 5704 5703 5699 5696 5692 5688 5685 5682 5678 5673 5668 5662 5656 5650 5645 5640 5633 5625 5618 5613 5608 5602 5597 5592 5588 5584 5580 5576 5572 5569 5566 5564 5559
5686 5689 5689 5689 5690 5692 5694 5694 5693 5691 5691 5689 5687 5686 5684 5682 5679 5676 5673 5668 5663 5659 5654 5648 5643 5638 5633 5626 5619 5613 5608 5600 5592 5589 5587 5585 5582 5578 5574 5571 5567 5564 5561 5559
5672 5671 5672 5673 5674 5675 5676 5677 5677 5676 5676 5674 5673 5673 5672 5670 5667 5664 5661 5658 5653 5649 5646 5641 5636 5631 5626 5619 5613 5609 5605 5600 5587 5583 5584 5582 5578 5574 5571 5568 5565 5562 5560 5558
5660 5659 5659 5659 5659 5660 5660 5661 5662 5661 5661 5661 5661 5660 5658 5655 5653 5651 5649 5646 5643 5640 5637 5633 5628 5623 5618 5611 5605 5601 5597 5593 5588 5584 5580 5577 5573 5570 5568 5566 5564 5562 5560 5558
5647 5646 5647 5646 5646 5646 5646 5646 5647 5647 5647 5647 5646 5645 5644 5642 5640 5638 5636 5634 5631 5628 5627 5624 5617 5612 5608 5603 5595 5591 5589 5585 5581 5578 5574 5569 5566 5567 5566 5564 5561 5560 5558 5555
5633 5633 5633 5634 5634 5633 5632 5633 5633 5633 5633 5632 5631 5630 5629 5628 5627 5626 5624 5621 5620 5618 5614 5610 5606 5602 5598 5594 5585 5585 5582 5578 5574 5572 5569 5567 5565 5563 5562 5560 5559 5557 5555 5553
5619 5619 5620 5620 5620 5620 5619 5618 5618 5617 5617 5617 5615 5614 5614 5613 5613 5611 5609 5609 5607 5603 5599 5595 5594 5592 5589 5584 5575 5577 5574 5571 5568 5565 5563 5561 5560 5558 5557 5556 5555 5554 5552 5550
5607 5607 5606 5606 5606 5605 5605 5605 5604 5603 5602 5601 5600 5599 5598 5597 5597 5596 5594 5592 5591 5585 5584 5585 5584 5578 5574 5568 5570 5568 5565 5563 5560 5559 5557 5555 5554 5552 5551 5551 5551 5550 5549 5548
5594 5594 5593 5593 5592 5591 5591 5591 5590 5588 5587 5585 5584 5583 5582 5580 5581 5580 5580 5580 5577 5570 5569 5571 5566 5559 5555 5556 5559 5558 5556 5553 5552 5551 5550 5549 5548 5547 5547 5547 5546 5546 5545 5544
5581 5581 5580 5579 5579 5578 5577 5577 5575 5574 5572 5571 5571 5569 5566 5566 5567 5566 5565 5562 5558 5554 5557 5554 5548 5544 5540 5547 5548 5548 5546 5544 5543 5543 5543 5542 5542 5542 5541 5541 5540 5541 5540 5539
5569 5568 5567 5566 5565 5566 5565 5563 5562 5561 5560 5559 5557 5555 5554 5552 5550 5549 5547 5547 5543 5540 5543 5540 5535 5532 5533 5537 5537 5536 5535 5534 5534 5533 5534 5534 5534 5534 5535 5534 5534 5534 5534 5534
5557 5556 5556 5553 5552 5550 5551 5550 5549 5547 5546 5545 5543 5541 5539 5538 5535 5534 5533 5533 5531 5527 5528 5527 5526 5523 5525 5526 5526 5525 5524 5524 5524 5524 5525 5525 5526 5527 5527 5528 5527 5528 5529 5530
5546 5546 5544 5543 5543 5542 5540 5537 5535 5533 5532 5530 5528 5527 5525 5524 5522 5521 5520 5520 5519 5517 5516 5515 5513 5513 5513 5513 5513 5512 5512 5513 5514 5515 5516 5517 5519 5520 5520 5521 5522 5522 5523 5525